Bartlesville, OK

7:24 PM CDT on August 21, 2017 (GMT -0500)
Bartlesville Municipal

Weather History for KBVO - July, 2013

Change the Weather History Date:

Sunday, July 28, 2013

  Actual Average Record
Temperature  
Mean Temperature 68 °F -  
Max Temperature 77 °F 94 °F 108 °F (2012)
Min Temperature 62 °F 68 °F 55 °F (2005)
Cooling Degree Days 4    
Growing Degree Days 18 (Base 50)    
Moisture  
Dew Point 63 °F    
Average Humidity 83    
Maximum Humidity 100    
Minimum Humidity 67    
Precipitation  
Precipitation 0.09 in - - ()
Sea Level Pressure  
Sea Level Pressure 30.02 in    
Wind  
Wind Speed 3 mph (NE)    
Max Wind Speed 12 mph    
Max Gust Speed -    
Visibility 10 miles    
Events Rain , Thunderstorm    
Averages and records for this station are not official NWS values.
T = Trace of Precipitation, MM = Missing Value Source: NWS Daily Summary

Daily Weather History Graph

Daily Weather History Graph

Search for Another Location

Airport or City:

Trip Planner

Search our weather history database for the weather conditions in past years. The results will help you decide how hot, cold, wet, or windy it might be!

Date:

Astronomy

Jul. 28, 2013 Rise Set
Actual Time 6:26 AM CDT 8:33 PM CDT
Civil Twilight 5:57 AM CDT 9:02 PM CDT
Nautical Twilight 5:22 AM CDT 9:37 PM CDT
Astronomical Twilight 4:44 AM CDT 10:15 PM CDT
Moon No Moon Rise 12:58 PM CDT (7/28)
Length of Visible Light 15h 04m
Length of Day
14h 07m
Waning Gibbous, 60% of the Moon is Illuminated
Jul 28
Waning Gibbous
Jul 29
Last Quarter
Aug 6
New
Aug 14
First Quarter
Aug 20
Full

Hourly Weather History & Observations

Time (CDT) Temp. Dew Point Humidity Pressure Visibility Wind Dir Wind Speed Gust Speed Precip Events Conditions
12:53 AM 66.0 °F 62.1 °F 87% 30.01 in 10.0 mi Calm Calm - N/A   Clear
1:53 AM 66.9 °F 62.1 °F 84% 30.01 in 10.0 mi North 4.6 mph - N/A   Scattered Clouds
2:25 AM 66.2 °F 62.6 °F 88% 30.04 in 10.0 mi Calm Calm - N/A Thunderstorm Overcast
2:40 AM 66.2 °F 62.6 °F 88% 30.03 in 10.0 mi Calm Calm - 0.01 in Rain Light Rain
2:53 AM 66.0 °F 62.1 °F 87% 30.00 in 10.0 mi Calm Calm - 0.01 in Rain Light Rain
3:23 AM 64.4 °F 64.4 °F 100% 30.06 in 6.0 mi Variable 3.5 mph - 0.02 in Rain , Thunderstorm Light Rain
3:53 AM 64.0 °F 61.0 °F 90% 30.01 in 10.0 mi North 4.6 mph - 0.04 in Rain , Thunderstorm Light Thunderstorms and Rain
4:05 AM 62.6 °F 62.6 °F 100% 30.04 in 7.0 mi North 3.5 mph - 0.02 in Rain Light Rain
4:53 AM 63.0 °F 63.0 °F 100% 30.01 in 10.0 mi Calm Calm - 0.03 in   Clear
5:53 AM 63.0 °F 61.0 °F 93% 30.02 in 10.0 mi Calm Calm - 0.01 in Rain Light Rain
6:53 AM 62.1 °F 61.0 °F 96% 30.04 in 10.0 mi Calm Calm - 0.00 in   Scattered Clouds
7:53 AM 63.0 °F 61.0 °F 93% 30.05 in 10.0 mi Calm Calm - N/A   Scattered Clouds
8:53 AM 64.0 °F 62.1 °F 93% 30.02 in 10.0 mi SE 3.5 mph - N/A   Clear
9:53 AM 71.1 °F 62.1 °F 73% 30.01 in 10.0 mi SE 4.6 mph - N/A   Clear
10:53 AM 72.0 °F 62.1 °F 71% 30.04 in 10.0 mi NNE 6.9 mph - N/A   Clear
11:53 AM 72.0 °F 64.0 °F 76% 30.03 in 10.0 mi NNE 5.8 mph - N/A   Clear
12:53 PM 73.9 °F 64.9 °F 73% 30.02 in 10.0 mi NNE 8.1 mph - N/A   Clear
1:53 PM 72.0 °F 64.9 °F 78% 30.02 in 10.0 mi NNE 6.9 mph - N/A   Clear
2:53 PM 75.9 °F 64.9 °F 69% 30.01 in 10.0 mi NE 8.1 mph - N/A   Clear
3:53 PM 75.9 °F 64.9 °F 69% 30.00 in 10.0 mi ENE 10.4 mph - N/A   Clear
4:53 PM 75.9 °F 64.0 °F 67% 29.99 in 10.0 mi ENE 10.4 mph - N/A   Clear
5:53 PM 73.0 °F 63.0 °F 71% 29.99 in 10.0 mi ENE 11.5 mph - N/A   Clear
6:53 PM 72.0 °F 62.1 °F 71% 29.99 in 10.0 mi ENE 9.2 mph - N/A   Clear
7:53 PM 71.1 °F 62.1 °F 73% 29.99 in 10.0 mi East 8.1 mph - N/A   Clear
9:53 PM 69.1 °F 62.1 °F 78% 30.00 in 10.0 mi Calm Calm - N/A   Clear
10:53 PM 69.1 °F 63.0 °F 81% 30.01 in 10.0 mi Calm Calm - N/A   Clear
11:53 PM 68.0 °F 64.0 °F 87% 30.00 in 10.0 mi Calm Calm - N/A   Partly Cloudy